THAICOM 8

Last updated on Jan. 29, 2020, 4:37 a.m. UTC

1 41552U 16031A   20028.77074223 -.00000123  00000-0  00000-0 0  9999
2 41552   0.0599  51.9187 0003722 306.2040 125.3491  1.00273100 13342
UTC
Height (km)
Latitude
Longitude
Inclination
Orbital Period
UTC large
Height (km)
Speed (km/s)
/
Latitude / Longitude
Inclination (degrees)
Orbital Period (minutes)
Azimuth
Elevation
Range (km)
Doppler Factor
iOS Compass Heading
iOS Angle

Next 30 passes for location: Hong Kong

Rise time Rise Azimuth (degrees) Set time Set Azimuth (degrees) Duration Max altitude (degrees)

No matching passes for this satellites